Location: Heppenheim
(49.6410°N, 8.6370°E)
Time: 17:04:41
(UTC+02:00)

ISS - Pass Details

Date: 07 May 2026
Orbit: 414 x 424 km, 51.6° (Epoch: 10 May)

Event Time Altitude Azimuth Distance (km) Brightness Sun altitude
Rises 04:52:54 0° 287° (WNW) 2,363 -0.3 -8.9°
Reaches altitude 10° 04:55:11 10° 275° (W) 1,498 -1.4 -8.7°
Maximum altitude 04:58:05 27° 215° (SW) 840 -2.8 -8.3°
Drops below altitude 10° 05:00:58 10° 156° (SSE) 1,496 -1.1 -7.9°
Sets 05:03:15 0° 143° (SE) 2,359 0.1 -7.6°
